This demonstration page uses our WeatherBlox Daily Observations layout. Learn more.

Hourly Observations for November 17, 2016

Temp ( °F °C ) Dew Point ( °F °C ) Humidity (%) Winds ( mph kmh ) Pressure ( in mb ) Visibility ( mi km ) Precip ( " mm )
12:54 am 00:54 Clear 53 11.7 42 5.6 66 66 S 5 7 29.49 999 10 16.0934 0 0
1:54 am 01:54 Clear 47 8.3 41 5 80 80 undefined N/A 29.48 998 10 16.0934 0 0
2:54 am 02:54 Clear 50 10 42 5.6 74 74 Calm 29.48 998 10 16.0934 0 0
3:54 am 03:54 Clear 45 7.2 41 5 86 86 Calm 29.47 998 10 16.0934 0 0
4:54 am 04:54 Clear 46 7.8 40 4.4 79 79 NNW 3 6 29.47 998 10 16.0934 0 0
5:54 am 05:54 Clear 45 7.2 41 5 86 86 N 9 15 29.48 998 10 16.0934 0 0
6:54 am 06:54 Clear 44 6.7 41 5 89 89 N 7 11 29.49 999 10 16.0934 0 0
7:54 am 07:54 Sunny 46 7.8 41 5 83 83 N 7 11 29.51 999 10 16.0934 0 0
8:54 am 08:54 Sunny 49 9.4 42 5.6 77 77 NNW 9 15 29.52 1000 10 16.0934 0 0
9:54 am 09:54 Sunny 52 11.1 43 6.1 72 72 N 7 11 29.52 1000 10 16.0934 0 0
10:54 am 10:54 Sunny 54 12.2 43 6.1 67 67 NNW 8 13 29.54 1000 10 16.0934 0 0
11:54 am 11:54 Sunny 56 13.3 43 6.1 62 62 N 6 9 29.55 1001 10 16.0934 0 0
12:54 pm 12:54 Sunny 57 13.9 43 6.1 60 60 N 8 13 29.54 1000 10 16.0934 0 0
1:54 pm 13:54 Sunny 59 15 43 6.1 56 56 NW 9 15 29.57 1001 10 16.0934 0 0
2:54 pm 14:54 Sunny 57 13.9 42 5.6 58 58 NW 16 26 29.58 1002 10 16.0934 0 0
3:54 pm 15:54 Sunny 53 11.7 41 5 64 64 N 10 17 29.59 1002 10 16.0934 0 0
4:54 pm 16:54 Sunny 52 11.1 40 4.4 64 64 NW 10 17 29.62 1003 10 16.0934 0 0
5:54 pm 17:54 Clear 51 10.6 40 4.4 66 66 NNW 12 19 29.64 1004 10 16.0934 0 0
6:54 pm 18:54 Clear 48 8.9 39 3.9 71 71 NNW 13 20 29.66 1004 10 16.0934 0 0
7:54 pm 19:54 Clear 44 6.7 38 3.3 79 79 N 7 11 29.66 1004 10 16.0934 0 0
8:54 pm 20:54 Mostly Cloudy 47 8.3 39 3.9 74 74 NNW 10 17 29.69 1005 10 16.0934 0 0
9:54 pm 21:54 Cloudy 47 8.3 41 5 80 80 NNW 15 24 29.7 1006 10 16.0934 0 0
10:14 pm 22:14 Cloudy 46 8 41 5 82 82 N 16 26 29.71 1006 10 16.0934 0 0
10:54 pm 22:54 Cloudy 46 7.8 41 5 83 83 NNE 15 24 29.67 1005 10 16.0934 0 0
11:54 pm 23:54 Cloudy 46 7.8 40 4.4 79 79 NNE 15 24 29.65 1004 10 16.0934 0 0

Powered by AerisWeather